INTELSAT 35E (IS-35E) (42818 NORAD) Tracking and Keplerian Element Data

This shows tracking and keplerian element data for the satellite.

Feedback or suggestion? Click here.




ElementValue
Catalog42818
NameINTELSAT 35E (IS-35E)
Epoch Orbit1544
Epoch Day262.14833512
Epoch Year2021
RAAN222.4204
Inclination0.0228
Eccentricity0.0001992
Argument of Perigee330.7233
Mean Anonmoly184.0303
Mean Motion1.00271762
Decay Rate-2.62E-06
L11 42818U 17041A 21262.14833512 -.00000262 00000-0 00000+0 0 9996
L22 42818 0.0228 222.4204 0001992 330.7233 184.0303 1.00271762 15444

Live tracking and technical data element details for INTELSAT 35E (IS-35E) (NORAD 42818). INTELSAT 35E (IS-35E) can be tracked NOW for your location showing map with azimuth and elevation plus other details from your city location.

Track the satellite on the map from your city or location and see movement details for azimuth, elevation, latitude, longitude, range, height, and movement on the map or in text.







IsCatalogInMostPopularTable: catalog: 42818, numindb: 556
Update: records affected: 1



GetName: 42818 INTELSAT 35E (IS-35E)

Hit Count: updated at: Fri, 24 Sep 2021 17:23:53 GMT